Home > Weather > Ramat Gan > Past weeks

Flag for Israel Past Weather in Ramat Gan, Israel — Yesterday and Last 2 Weeks

Now
86 °F

Sunny.


Feels Like: 93 °F
Forecast: 78 / 90 °F
Wind: 10 mph from West

Location: Dov Airport

Current Time: Jul 31, 2016 at 12:46:19 PM

Latest Report: Jul 31, 2016 at 11:50 AM


Visibility: 10 mi

Pressure: 29.74 "Hg

Humidity: 66%

Dew Point: 73 °F

Location of Ramat GanLocation

Past Weather in Ramat Gan — Graph

°F

Ramat Gan Temperature Yesterday

Maximum temperature yesterday: 90 °F (at 1:50 PM)
Minimum temperature yesterday: 81 °F (at 4:00 AM)
Average temperature yesterday: 84 °F

High & Low Weather Summary for the Past Weeks

 TemperatureHumidityPressure
High90 °F (Jul 30, 1:50 PM)89% (Jul 26, 4:50 AM)29.89 "Hg (Jul 26, 4:50 AM)
Low75 °F (Jul 22, 5:50 AM)49% (Jul 19, 3:50 PM)29.65 "Hg (Jul 19, 5:50 AM)
Average83 °F67%29.74 "Hg
* Reported Jul 16 11:50 AM — Jul 31 11:50 AM, Ramat Gan, Weather by CustomWeather, © 2016

Note: Actual official high and low records may vary slightly from our data, if they occured in-between our weather recording intervals... More about our weather records

Advertising

Ramat Gan Weather History for the Previous 24 Hours

Scroll right to see more
 ConditionsComfort  
Time TempWeatherWind HumidityBarometerVisibility
11:50 AM
Sun, Jul 31
86 °FSunny.10 mph66%29.74 "Hg10 mi
10:50 AM86 °FPassing clouds.9 mph66%29.74 "HgN/A
9:50 AM84 °FPassing clouds.7 mph70%29.71 "HgN/A
8:50 AM82 °FScattered clouds.7 mph74%29.71 "HgN/A
7:50 AM82 °FPassing clouds.5 mph74%29.71 "HgN/A
6:50 AM79 °FPassing clouds.3 mph84%29.68 "HgN/A
5:50 AM79 °FPassing clouds.3 mph84%29.68 "HgN/A
4:50 AM79 °FPassing clouds.3 mph84%29.68 "HgN/A
11:50 PM
Sat, Jul 30
82 °FPassing clouds.5 mph74%29.71 "HgN/A
10:50 PM82 °FPassing clouds.6 mph74%29.71 "HgN/A
9:50 PM82 °FPassing clouds.5 mph79%29.71 "HgN/A
8:50 PM82 °FPassing clouds.5 mph79%29.68 "HgN/A
7:50 PM82 °FScattered clouds.7 mph79%29.68 "HgN/A
6:50 PM84 °FPassing clouds.9 mph74%29.65 "HgN/A
5:50 PM86 °FScattered clouds.10 mph70%29.65 "HgN/A
4:50 PM86 °FScattered clouds.10 mph70%29.65 "HgN/A
3:50 PM86 °FPassing clouds.10 mph70%29.68 "HgN/A
2:50 PM88 °FPassing clouds.12 mph66%29.68 "HgN/A
1:50 PM90 °FPassing clouds.12 mph59%29.68 "HgN/A
12:50 PM88 °FPassing clouds.10 mph62%29.71 "HgN/A
Weather by CustomWeather, © 2016

See weather overviewHow to use our weather pages